UAL655 KDEN-KLAS

Flight info

Callsign UAL655
Flight time 1h 23m
Altitude 38000
Route CONNR8 WERNR ZAKRY CHESZ GGAPP CHOWW4
Aircraft A320/M-SDE3FGHIRWY/LB1

Departure

Time 2026-05-08 04:41
Airport Denver International Airport (KDEN)

Arrival

Time 2026-05-08 06:05
Airport Harry Reid International Airport (KLAS)
Time Latitude Longitude Altitude Speed Heading
2026-05-08 04:16 39.85806 -104.67800 5377 ft 0 kts
2026-05-08 04:32 39.85797 -104.67800 5377 ft 4 kts 360°
2026-05-08 04:32 39.85770 -104.67800 5378 ft 4 kts 360°
2026-05-08 04:32 39.85743 -104.67800 5376 ft 4 kts 360°
2026-05-08 04:32 39.85729 -104.67800 5376 ft 0 kts 360°
2026-05-08 04:35 39.85731 -104.67802 5376 ft 1 kts 344°
2026-05-08 04:35 39.85725 -104.67880 5380 ft 15 kts 243°
2026-05-08 04:36 39.85635 -104.67936 5381 ft 15 kts 198°
2026-05-08 04:36 39.85595 -104.68048 5382 ft 15 kts 269°
2026-05-08 04:36 39.85596 -104.68195 5381 ft 17 kts 272°
2026-05-08 04:36 39.85592 -104.68354 5378 ft 17 kts 252°
2026-05-08 04:37 39.85496 -104.68397 5380 ft 15 kts 180°
2026-05-08 04:37 39.85389 -104.68400 5381 ft 16 kts 181°
2026-05-08 04:37 39.85282 -104.68403 5377 ft 16 kts 181°
2026-05-08 04:37 39.85207 -104.68461 5378 ft 13 kts 259°
2026-05-08 04:38 39.85205 -104.68592 5375 ft 17 kts 268°
2026-05-08 04:38 39.85200 -104.68763 5364 ft 17 kts 269°
2026-05-08 04:38 39.85198 -104.68924 5360 ft 19 kts 269°
2026-05-08 04:38 39.85195 -104.69081 5352 ft 12 kts 269°
2026-05-08 04:39 39.85195 -104.69206 5348 ft 17 kts 271°
2026-05-08 04:39 39.85200 -104.69386 5339 ft 20 kts 272°
2026-05-08 04:39 39.85203 -104.69501 5340 ft 13 kts 271°
2026-05-08 04:39 39.85209 -104.69620 5337 ft 13 kts 288°
2026-05-08 04:40 39.85286 -104.69659 5337 ft 11 kts
2026-05-08 04:40 39.85324 -104.69658 5337 ft 7 kts
2026-05-08 04:40 39.85390 -104.69657 5337 ft 18 kts
2026-05-08 04:40 39.85781 -104.69650 5339 ft 92 kts
2026-05-08 04:41 39.86626 -104.69642 5334 ft 148 kts
2026-05-08 04:41 39.87795 -104.69625 5479 ft 179 kts
2026-05-08 04:41 39.89412 -104.69968 6418 ft 182 kts 321°
2026-05-08 04:41 39.89935 -104.70811 6857 ft 178 kts 287°
2026-05-08 04:42 39.89928 -104.72432 7325 ft 194 kts 250°
2026-05-08 04:42 39.89317 -104.74118 7716 ft 218 kts 247°
2026-05-08 04:42 39.88675 -104.76020 8093 ft 242 kts 249°
2026-05-08 04:42 39.88005 -104.78145 8512 ft 266 kts 250°
2026-05-08 04:43 39.87303 -104.80437 9163 ft 278 kts 250°
2026-05-08 04:43 39.86587 -104.82810 9782 ft 284 kts 251°
2026-05-08 04:43 39.85880 -104.85171 9944 ft 284 kts 251°
2026-05-08 04:43 39.85166 -104.87561 9978 ft 283 kts 251°
2026-05-08 04:44 39.84451 -104.89949 9974 ft 283 kts 252°
2026-05-08 04:44 39.83847 -104.92405 10313 ft 287 kts 257°
2026-05-08 04:44 39.83329 -104.94911 11216 ft 287 kts 259°
2026-05-08 04:44 39.82841 -104.97430 12087 ft 288 kts 260°
2026-05-08 04:45 39.82357 -104.99962 12940 ft 289 kts 260°
2026-05-08 04:45 39.81868 -105.02514 13840 ft 291 kts 260°
2026-05-08 04:45 39.81367 -105.05076 14583 ft 294 kts 260°
2026-05-08 04:45 39.80852 -105.07667 15283 ft 297 kts 259°
2026-05-08 04:46 39.80330 -105.10281 16001 ft 300 kts 259°
2026-05-08 04:46 39.79801 -105.12928 16700 ft 304 kts 259°
2026-05-08 04:46 39.79266 -105.15601 17401 ft 307 kts 259°
2026-05-08 04:46 39.78721 -105.18302 18101 ft 311 kts 259°
2026-05-08 04:47 39.78168 -105.21036 18707 ft 314 kts 259°
2026-05-08 04:47 39.77611 -105.23792 19331 ft 317 kts 259°
2026-05-08 04:47 39.77048 -105.26569 19956 ft 319 kts 259°
2026-05-08 04:47 39.76479 -105.29368 20581 ft 322 kts 259°
2026-05-08 04:48 39.75904 -105.32188 21182 ft 324 kts 259°
2026-05-08 04:48 39.75325 -105.35030 21734 ft 327 kts 259°
2026-05-08 04:48 39.74738 -105.37902 22315 ft 330 kts 259°
2026-05-08 04:48 39.74144 -105.40794 22897 ft 333 kts 259°
2026-05-08 04:49 39.73541 -105.43717 23437 ft 337 kts 258°
2026-05-08 04:49 39.72924 -105.46726 23588 ft 352 kts 258°
2026-05-08 04:49 39.72281 -105.49867 23705 ft 368 kts 258°
2026-05-08 04:49 39.71612 -105.53133 24003 ft 378 kts 258°
2026-05-08 04:50 39.70933 -105.56444 24456 ft 382 kts 258°
2026-05-08 04:50 39.70244 -105.59792 24940 ft 385 kts 258°
2026-05-08 04:50 39.69555 -105.63155 25424 ft 387 kts 258°
2026-05-08 04:50 39.68865 -105.66553 25846 ft 390 kts 261°
2026-05-08 04:51 39.68263 -105.70030 26019 ft 401 kts 263°
2026-05-08 04:51 39.67751 -105.73629 26142 ft 410 kts 264°
2026-05-08 04:51 39.67288 -105.77321 26277 ft 419 kts 265°
2026-05-08 04:51 39.66833 -105.81085 26564 ft 425 kts 265°
2026-05-08 04:52 39.66365 -105.84880 26897 ft 428 kts 265°
2026-05-08 04:52 39.65872 -105.88705 27269 ft 431 kts 264°
2026-05-08 04:52 39.65354 -105.92547 27632 ft 434 kts 264°
2026-05-08 04:52 39.64815 -105.96406 27982 ft 436 kts 264°
2026-05-08 04:53 39.64265 -106.00291 28334 ft 439 kts 264°
2026-05-08 04:53 39.63713 -106.04197 28698 ft 442 kts 265°
2026-05-08 04:53 39.63161 -106.08129 29021 ft 444 kts 265°
2026-05-08 04:53 39.62613 -106.12074 29440 ft 444 kts 265°
2026-05-08 04:54 39.62067 -106.16007 29978 ft 443 kts 266°
2026-05-08 04:54 39.61517 -106.19935 30420 ft 442 kts 265°
2026-05-08 04:54 39.60966 -106.23852 30855 ft 441 kts 265°
2026-05-08 04:54 39.60417 -106.27756 31281 ft 439 kts 265°
2026-05-08 04:55 39.59869 -106.31647 31703 ft 438 kts 265°
2026-05-08 04:55 39.59320 -106.35527 32107 ft 437 kts 266°
2026-05-08 04:55 39.58767 -106.39399 32519 ft 436 kts 265°
2026-05-08 04:55 39.58214 -106.43264 32934 ft 435 kts 265°
2026-05-08 04:56 39.57663 -106.47112 33384 ft 434 kts 266°
2026-05-08 04:56 39.57117 -106.50956 33843 ft 433 kts 265°
2026-05-08 04:56 39.56575 -106.54785 34288 ft 431 kts 265°
2026-05-08 04:56 39.56031 -106.58602 34713 ft 429 kts 265°
2026-05-08 04:57 39.55485 -106.62400 35152 ft 427 kts 265°
2026-05-08 04:57 39.54907 -106.66173 35569 ft 428 kts 261°
2026-05-08 04:57 39.53961 -106.69848 35974 ft 432 kts 253°
2026-05-08 04:57 39.52828 -106.73447 36333 ft 431 kts 254°
2026-05-08 04:58 39.51713 -106.76989 36691 ft 429 kts 253°
2026-05-08 04:58 39.50590 -106.80560 37018 ft 428 kts 253°
2026-05-08 04:58 39.49470 -106.84114 37406 ft 426 kts 253°
2026-05-08 04:58 39.48351 -106.87660 37879 ft 425 kts 253°
2026-05-08 04:59 39.47238 -106.91198 38105 ft 425 kts 253°
2026-05-08 04:59 39.46125 -106.94740 38131 ft 425 kts 253°
2026-05-08 04:59 39.43891 -107.01826 38105 ft 425 kts 253°
2026-05-08 05:00 39.41645 -107.08918 38076 ft 428 kts 253°
2026-05-08 05:00 39.39372 -107.16053 38038 ft 430 kts 253°
2026-05-08 05:01 39.37044 -107.23177 37998 ft 431 kts 251°
2026-05-08 05:01 39.34471 -107.30197 37995 ft 433 kts 250°
2026-05-08 05:02 39.31801 -107.37176 38002 ft 434 kts 250°
2026-05-08 05:02 39.29154 -107.44177 37976 ft 434 kts 250°
2026-05-08 05:03 39.26543 -107.51200 37986 ft 435 kts 250°
2026-05-08 05:03 39.23930 -107.58238 37996 ft 435 kts 250°
2026-05-08 05:04 39.21300 -107.65277 38010 ft 436 kts 250°
2026-05-08 05:04 39.18656 -107.72320 38015 ft 436 kts 250°
2026-05-08 05:05 39.16001 -107.79358 37981 ft 437 kts 250°
2026-05-08 05:05 39.13343 -107.86400 37991 ft 437 kts 250°
2026-05-08 05:06 39.10679 -107.93439 37993 ft 438 kts 250°
2026-05-08 05:06 39.08010 -108.00483 38015 ft 438 kts 250°
2026-05-08 05:07 39.05339 -108.07525 38023 ft 438 kts 250°
2026-05-08 05:07 39.02663 -108.14554 38020 ft 437 kts 250°
2026-05-08 05:08 38.99984 -108.21575 38022 ft 437 kts 250°
2026-05-08 05:08 38.97301 -108.28597 38014 ft 437 kts 250°
2026-05-08 05:09 38.94615 -108.35601 38023 ft 437 kts 250°
2026-05-08 05:09 38.91916 -108.42606 38022 ft 437 kts 250°
2026-05-08 05:10 38.87867 -108.53113 37990 ft 438 kts 251°
2026-05-08 05:11 38.85161 -108.60120 37980 ft 438 kts 251°
2026-05-08 05:11 38.82453 -108.67122 37962 ft 438 kts 251°
2026-05-08 05:12 38.79732 -108.74125 37944 ft 438 kts 250°
2026-05-08 05:12 38.77010 -108.81120 37942 ft 439 kts 251°
2026-05-08 05:13 38.74275 -108.88132 37953 ft 440 kts 251°
2026-05-08 05:13 38.71551 -108.95092 37960 ft 440 kts 251°
2026-05-08 05:14 38.68806 -109.02099 37956 ft 441 kts 251°
2026-05-08 05:14 38.66052 -109.09109 37938 ft 441 kts 251°
2026-05-08 05:15 38.63297 -109.16126 37832 ft 440 kts 250°
2026-05-08 05:15 38.61919 -109.19622 37202 ft 441 kts 250°
2026-05-08 05:15 38.60537 -109.23122 36531 ft 442 kts 250°
2026-05-08 05:15 38.59148 -109.26634 35821 ft 443 kts 251°
2026-05-08 05:16 38.57754 -109.30157 35141 ft 445 kts 251°
2026-05-08 05:16 38.56357 -109.33686 34462 ft 446 kts 251°
2026-05-08 05:16 38.54952 -109.37229 33719 ft 448 kts 251°
2026-05-08 05:16 38.53544 -109.40784 32868 ft 450 kts 251°
2026-05-08 05:17 38.52127 -109.44357 32203 ft 452 kts 250°
2026-05-08 05:17 38.50697 -109.47956 31947 ft 457 kts 250°
2026-05-08 05:17 38.49255 -109.51579 31933 ft 459 kts 250°
2026-05-08 05:18 38.46351 -109.58856 31942 ft 460 kts 250°
2026-05-08 05:18 38.43436 -109.66133 31942 ft 461 kts 250°
2026-05-08 05:19 38.40513 -109.73406 31932 ft 461 kts 250°
2026-05-08 05:19 38.37588 -109.80676 31909 ft 461 kts 249°
2026-05-08 05:20 38.34653 -109.87952 31917 ft 461 kts 249°
2026-05-08 05:20 38.31714 -109.95220 31919 ft 461 kts 249°
2026-05-08 05:21 38.28771 -110.02476 31925 ft 461 kts 249°
2026-05-08 05:21 38.26003 -110.09812 31911 ft 458 kts 252°
2026-05-08 05:22 38.23507 -110.17263 31891 ft 458 kts 253°
2026-05-08 05:22 38.21022 -110.24725 31901 ft 459 kts 252°
2026-05-08 05:23 38.18451 -110.32159 31913 ft 460 kts 251°
2026-05-08 05:23 38.15844 -110.39581 31915 ft 460 kts 251°
2026-05-08 05:24 38.13237 -110.47004 31920 ft 460 kts 251°
2026-05-08 05:24 38.10637 -110.54433 31913 ft 461 kts 251°
2026-05-08 05:25 38.08029 -110.61867 31917 ft 461 kts 251°
2026-05-08 05:25 38.05413 -110.69301 31919 ft 461 kts 251°
2026-05-08 05:26 38.03231 -110.75474 31927 ft 462 kts 251°
2026-05-08 05:26 38.00598 -110.82903 31913 ft 462 kts 251°
2026-05-08 05:27 37.97959 -110.90336 31918 ft 463 kts 251°
2026-05-08 05:27 37.95315 -110.97776 31925 ft 463 kts 251°
2026-05-08 05:28 37.92664 -111.05213 31937 ft 463 kts 251°
2026-05-08 05:28 37.90009 -111.12640 31932 ft 463 kts 251°
2026-05-08 05:29 37.87350 -111.20064 31936 ft 463 kts 251°
2026-05-08 05:29 37.84690 -111.27485 31948 ft 463 kts 251°
2026-05-08 05:30 37.82016 -111.34900 31949 ft 463 kts 251°
2026-05-08 05:30 37.79338 -111.42307 31948 ft 463 kts 250°
2026-05-08 05:31 37.76663 -111.49720 31953 ft 464 kts 250°
2026-05-08 05:31 37.73979 -111.57136 31965 ft 464 kts 250°
2026-05-08 05:32 37.71281 -111.64549 31961 ft 465 kts 250°
2026-05-08 05:32 37.68575 -111.71964 31987 ft 465 kts 250°
2026-05-08 05:33 37.65873 -111.79371 32038 ft 465 kts 250°
2026-05-08 05:33 37.63161 -111.86771 32087 ft 464 kts 250°
2026-05-08 05:34 37.60441 -111.94156 32136 ft 464 kts 250°
2026-05-08 05:34 37.57727 -112.01545 32165 ft 464 kts 250°
2026-05-08 05:35 37.55015 -112.08929 32166 ft 464 kts 250°
2026-05-08 05:35 37.51966 -112.16124 32125 ft 469 kts 241°
2026-05-08 05:36 37.48390 -112.23001 32089 ft 469 kts 241°
2026-05-08 05:36 37.44824 -112.29886 32041 ft 469 kts 241°
2026-05-08 05:37 37.41284 -112.36722 31995 ft 470 kts 241°
2026-05-08 05:37 37.37710 -112.43599 31967 ft 470 kts 240°
2026-05-08 05:38 37.34124 -112.50474 31963 ft 471 kts 240°
2026-05-08 05:38 37.30521 -112.57360 31967 ft 472 kts 240°
2026-05-08 05:39 37.26913 -112.64255 31966 ft 473 kts 240°
2026-05-08 05:39 37.23299 -112.71146 31962 ft 473 kts 240°
2026-05-08 05:40 37.19672 -112.78044 31992 ft 473 kts 240°
2026-05-08 05:40 37.16044 -112.84936 32022 ft 474 kts 240°
2026-05-08 05:41 37.12412 -112.91824 32067 ft 474 kts 240°
2026-05-08 05:41 37.08770 -112.98706 32103 ft 474 kts 240°
2026-05-08 05:42 37.05120 -113.05584 32126 ft 474 kts 240°
2026-05-08 05:42 37.01474 -113.12454 32109 ft 474 kts 240°
2026-05-08 05:43 36.97823 -113.19320 32091 ft 474 kts 240°
2026-05-08 05:43 36.94167 -113.26177 32053 ft 474 kts 240°
2026-05-08 05:44 36.90513 -113.33027 32008 ft 474 kts 240°
2026-05-08 05:44 36.86853 -113.39869 31951 ft 474 kts 239°
2026-05-08 05:45 36.83185 -113.46704 31942 ft 474 kts 239°
2026-05-08 05:45 36.79513 -113.53530 31700 ft 474 kts 239°
2026-05-08 05:45 36.77679 -113.56944 30760 ft 476 kts 239°
2026-05-08 05:46 36.75827 -113.60395 29500 ft 482 kts 239°
2026-05-08 05:46 36.73958 -113.63880 28253 ft 484 kts 239°
2026-05-08 05:46 36.72083 -113.67374 26949 ft 486 kts 239°
2026-05-08 05:46 36.70196 -113.70881 25709 ft 489 kts 238°
2026-05-08 05:47 36.68327 -113.74343 24878 ft 470 kts 238°
2026-05-08 05:47 36.66536 -113.77648 24021 ft 452 kts 238°
2026-05-08 05:47 36.64778 -113.80893 23148 ft 452 kts 238°
2026-05-08 05:47 36.63030 -113.84128 22288 ft 448 kts 238°
2026-05-08 05:48 36.61300 -113.87337 21474 ft 445 kts 238°
2026-05-08 05:48 36.59584 -113.90520 20632 ft 441 kts 238°
2026-05-08 05:48 36.57846 -113.93656 19818 ft 439 kts 236°
2026-05-08 05:48 36.56034 -113.96704 19024 ft 438 kts 234°
2026-05-08 05:49 36.54169 -113.99687 18260 ft 436 kts 233°
2026-05-08 05:49 36.52289 -114.02627 17470 ft 432 kts 233°
2026-05-08 05:49 36.50424 -114.05531 16838 ft 426 kts 233°
2026-05-08 05:49 36.48617 -114.08366 16668 ft 410 kts 234°
2026-05-08 05:50 36.46895 -114.11095 16545 ft 393 kts 234°
2026-05-08 05:50 36.45252 -114.13722 16390 ft 377 kts 234°
2026-05-08 05:50 36.43686 -114.16246 16262 ft 359 kts 234°
2026-05-08 05:50 36.42209 -114.18627 15944 ft 340 kts 235°
2026-05-08 05:51 36.40776 -114.20937 15606 ft 335 kts 235°
2026-05-08 05:51 36.39365 -114.23210 15364 ft 330 kts 235°
2026-05-08 05:51 36.37959 -114.25450 15122 ft 328 kts 234°
2026-05-08 05:51 36.36546 -114.27669 14868 ft 327 kts 234°
2026-05-08 05:52 36.35133 -114.29873 14574 ft 326 kts 234°
2026-05-08 05:52 36.33726 -114.32067 14287 ft 321 kts 234°
2026-05-08 05:52 36.32382 -114.34164 14175 ft 301 kts 234°
2026-05-08 05:52 36.31121 -114.36130 14048 ft 282 kts 234°
2026-05-08 05:53 36.29923 -114.38002 13722 ft 274 kts 235°
2026-05-08 05:53 36.28748 -114.39845 13233 ft 271 kts 234°
2026-05-08 05:53 36.27582 -114.41671 12763 ft 268 kts 234°
2026-05-08 05:53 36.26427 -114.43478 12308 ft 266 kts 234°
2026-05-08 05:54 36.25284 -114.45268 11836 ft 264 kts 234°
2026-05-08 05:54 36.24143 -114.47038 11408 ft 262 kts 234°
2026-05-08 05:54 36.23004 -114.48788 11062 ft 260 kts 233°
2026-05-08 05:54 36.21870 -114.50522 10733 ft 258 kts 233°
2026-05-08 05:55 36.20744 -114.52243 10401 ft 256 kts 233°
2026-05-08 05:55 36.19623 -114.53957 10084 ft 255 kts 233°
2026-05-08 05:55 36.18510 -114.55660 9776 ft 254 kts 233°
2026-05-08 05:55 36.17402 -114.57354 9445 ft 252 kts 233°
2026-05-08 05:56 36.16306 -114.59035 9140 ft 250 kts 233°
2026-05-08 05:56 36.15219 -114.60701 8910 ft 247 kts 233°
2026-05-08 05:56 36.14151 -114.62331 8900 ft 247 kts 233°
2026-05-08 05:56 36.13055 -114.64009 8912 ft 248 kts 233°
2026-05-08 05:57 36.11986 -114.65643 8922 ft 248 kts 233°
2026-05-08 05:57 36.10899 -114.67299 8868 ft 249 kts 233°
2026-05-08 05:57 36.09793 -114.68982 8332 ft 251 kts 233°
2026-05-08 05:57 36.08720 -114.70614 8116 ft 237 kts 232°
2026-05-08 05:58 36.07830 -114.72225 8008 ft 217 kts 247°
2026-05-08 05:58 36.07396 -114.73928 7963 ft 203 kts 265°
2026-05-08 05:58 36.07325 -114.75584 7966 ft 202 kts 271°
2026-05-08 05:58 36.07326 -114.77366 7913 ft 198 kts 271°
2026-05-08 05:59 36.07331 -114.79067 7509 ft 198 kts 271°
2026-05-08 05:59 36.07336 -114.80767 7117 ft 197 kts 270°
2026-05-08 05:59 36.07340 -114.82459 6669 ft 199 kts 270°
2026-05-08 05:59 36.07343 -114.84214 6077 ft 208 kts 269°
2026-05-08 06:00 36.07346 -114.86017 5674 ft 205 kts 269°
2026-05-08 06:00 36.07350 -114.87716 5482 ft 192 kts 269°
2026-05-08 06:00 36.07353 -114.89355 5108 ft 190 kts 269°
2026-05-08 06:00 36.07355 -114.90986 4722 ft 190 kts 269°
2026-05-08 06:01 36.07357 -114.92604 4378 ft 187 kts 269°
2026-05-08 06:01 36.07359 -114.94206 3955 ft 187 kts 269°
2026-05-08 06:01 36.07360 -114.95812 3781 ft 188 kts 269°
2026-05-08 06:01 36.07362 -114.97431 3822 ft 189 kts 269°
2026-05-08 06:02 36.07363 -114.99061 3797 ft 189 kts 269°
2026-05-08 06:02 36.07365 -115.00562 3785 ft 160 kts 268°
2026-05-08 06:02 36.07366 -115.01860 3673 ft 143 kts 270°
2026-05-08 06:02 36.07366 -115.03059 3531 ft 137 kts 270°
2026-05-08 06:03 36.07366 -115.04231 3380 ft 135 kts 269°
2026-05-08 06:03 36.07366 -115.05397 3231 ft 137 kts 269°
2026-05-08 06:03 36.07366 -115.06562 3070 ft 135 kts 268°
2026-05-08 06:03 36.07366 -115.07735 2900 ft 137 kts 268°
2026-05-08 06:04 36.07366 -115.08924 2724 ft 140 kts 268°
2026-05-08 06:04 36.07366 -115.10122 2515 ft 140 kts 267°
2026-05-08 06:04 36.07375 -115.11329 2302 ft 139 kts 268°
2026-05-08 06:04 36.07375 -115.12530 2136 ft 139 kts 266°
2026-05-08 06:05 36.07367 -115.13672 2075 ft 119 kts 266°
2026-05-08 06:05 36.07371 -115.14314 2089 ft 19 kts 273°
2026-05-08 06:05 36.07411 -115.14450 2091 ft 17 kts 296°
2026-05-08 06:05 36.07458 -115.14559 2094 ft 9 kts 300°
2026-05-08 06:06 36.07491 -115.14625 2097 ft 9 kts 306°
2026-05-08 06:06 36.07539 -115.14655 2099 ft 5 kts 357°
2026-05-08 06:06 36.07540 -115.14655 2099 ft 0 kts 357°
2026-05-08 06:07 36.07543 -115.14655 2099 ft 1 kts 358°
2026-05-08 06:07 36.07589 -115.14654 2101 ft 9 kts
2026-05-08 06:07 36.07672 -115.14654 2101 ft 16 kts 359°
2026-05-08 06:08 36.07785 -115.14693 2098 ft 18 kts 331°
2026-05-08 06:08 36.07844 -115.14616 2097 ft 17 kts 94°
2026-05-08 06:08 36.07836 -115.14466 2096 ft 17 kts 94°
2026-05-08 06:08 36.07827 -115.14318 2096 ft 12 kts 92°
2026-05-08 06:09 36.07827 -115.14236 2095 ft 11 kts 89°
2026-05-08 06:09 36.07829 -115.14123 2094 ft 15 kts 88°
2026-05-08 06:09 36.07853 -115.13995 2093 ft 16 kts 45°
2026-05-08 06:09 36.07928 -115.13900 2093 ft 12 kts 45°
2026-05-08 06:10 36.07990 -115.13897 2093 ft 8 kts 319°
2026-05-08 06:10 36.08019 -115.13933 2093 ft 3 kts 314°
2026-05-08 06:10 36.08020 -115.13935 2093 ft 0 kts 314°